Weather History for KTVI - March, 2013

Change the Weather History Date:

Sunday, March 24, 2013

  Actual Average (KVLD) Record (KVLD)
Temperature  
Mean Temperature 68 °F 61 °F  
Max Temperature 82 °F 74 °F 89 °F (2013)
Min Temperature 55 °F 49 °F 41 °F (2002)
Degree Days  
Heating Degree Days 0 5  
Month to date heating degree days 155  
Since 1 July heating degree days 1535  
Cooling Degree Days 4 1  
Month to date cooling degree days 24  
Year to date cooling degree days 34  
Growing Degree Days 18 (Base 50)    
Moisture  
Dew Point 58 °F    
Average Humidity 70    
Maximum Humidity 100    
Minimum Humidity 32    
Precipitation  
Precipitation 0.00 in 0.14 in 0.62 in (2013)
Month to date precipitation 3.79  
Year to date precipitation 12.52  
Sea Level Pressure  
Sea Level Pressure 29.61 in    
Wind  
Wind Speed 9 mph (WSW)    
Max Wind Speed 20 mph    
Max Gust Speed 30 mph    
Visibility 8 miles    
Events Rain , Thunderstorm    
T = Trace of Precipitation, MM = Missing Value Source: NWS Daily Summary

Daily Weather History Graph

Daily Weather History Graph

Search for Another Location

Airport or City:

Trip Planner

Search our weather history database for the weather conditions in past years. The results will help you decide how hot, cold, wet, or windy it might be!

Date:

Astronomy

Mar. 24, 2013 Rise Set
Actual Time 7:34 AM EDT 7:49 PM EDT
Civil Twilight 7:09 AM EDT 8:13 PM EDT
Nautical Twilight 6:41 AM EDT 8:42 PM EDT
Astronomical Twilight 6:13 AM EDT 9:10 PM EDT
Moon 5:24 PM EDT (3/24) 5:34 AM EDT (3/24)
Length of Visible Light 13h 04m
Length of Day
12h 15m
Waxing Gibbous, 91% of the Moon is Illuminated
Mar 24
Waxing Gibbous
Mar 27
Full
Apr 3
Last Quarter
Apr 10
New
Apr 18
First Quarter

Hourly Weather History & Observations

Time (EDT) Temp. Heat Index Dew Point Humidity Pressure Visibility Wind Dir Wind Speed Gust Speed Precip Events Conditions
12:15 AM 55.4 °F - 55.4 °F 100% 29.75 in 10.0 mi East 4.6 mph - N/A Rain Light Rain
12:35 AM 55.4 °F - 55.4 °F 100% 29.74 in 10.0 mi ESE 4.6 mph - N/A   Overcast
12:55 AM 55.4 °F - 55.4 °F 100% 29.73 in 3.0 mi SE 6.9 mph - N/A   Overcast
1:15 AM 57.2 °F - 57.2 °F 100% 29.71 in 1.8 mi ESE 6.9 mph - N/A Rain Rain
1:55 AM 57.2 °F - 57.2 °F 100% 29.70 in 2.0 mi ESE 5.8 mph - N/A   Overcast
2:15 AM 57.2 °F - 57.2 °F 100% 29.70 in 1.8 mi ESE 6.9 mph - N/A   Drizzle
2:35 AM 57.2 °F - 57.2 °F 100% 29.69 in 1.5 mi SE 5.8 mph - N/A   Drizzle
2:55 AM 59.0 °F - 59.0 °F 100% 29.67 in 2.0 mi SE 8.1 mph - N/A   Light Drizzle
3:15 AM 59.0 °F - 59.0 °F 100% 29.66 in 1.8 mi SSE 9.2 mph - N/A   Light Drizzle
3:35 AM 59.0 °F - 59.0 °F 100% 29.65 in 1.5 mi SSE 6.9 mph - N/A   Overcast
3:55 AM 59.0 °F - 59.0 °F 100% 29.63 in 1.2 mi SSE 8.1 mph - N/A   Light Drizzle
4:15 AM 59.0 °F - 59.0 °F 100% 29.63 in 1.0 mi South 5.8 mph - N/A   Overcast
4:35 AM 60.8 °F - 60.8 °F 100% 29.62 in 0.8 mi South 3.5 mph - N/A Rain Light Rain
4:55 AM 60.8 °F - 60.8 °F 100% 29.61 in 0.5 mi South 6.9 mph - N/A Rain Light Rain
5:15 AM 64.4 °F - 64.4 °F 100% 29.59 in 2.0 mi SSW 10.4 mph - N/A Rain Light Rain
5:35 AM 68.0 °F - 68.0 °F 100% 29.58 in 4.0 mi SSW 12.7 mph 19.6 mph N/A Thunderstorm Overcast
5:55 AM 68.0 °F - 68.0 °F 100% 29.56 in 5.0 mi SSW 12.7 mph 23.0 mph N/A   Overcast
6:15 AM 68.0 °F - 68.0 °F 100% 29.58 in 7.0 mi SSW 12.7 mph 18.4 mph N/A   Overcast
6:35 AM 68.0 °F - 68.0 °F 100% 29.53 in 7.0 mi South 18.4 mph 23.0 mph N/A Thunderstorm Drizzle
6:55 AM 68.0 °F - 68.0 °F 100% 29.57 in 5.0 mi SW 12.7 mph 23.0 mph N/A Rain , Thunderstorm Light Thunderstorms and Rain
7:55 AM 68.0 °F - 66.2 °F 94% 29.59 in 7.0 mi West 5.8 mph - N/A Rain , Thunderstorm Thunderstorms and Rain
8:35 AM 66.2 °F - 66.2 °F 100% 29.59 in 5.0 mi West 8.1 mph - N/A Rain , Thunderstorm Rain
8:55 AM 68.0 °F - 66.2 °F 94% 29.58 in 4.0 mi SW 9.2 mph 19.6 mph N/A Rain , Thunderstorm Light Thunderstorms and Rain
9:15 AM 68.0 °F - 68.0 °F 100% 29.59 in 10.0 mi WSW 10.4 mph - N/A   Overcast
9:35 AM 68.0 °F - 68.0 °F 100% 29.60 in 10.0 mi SW 8.1 mph - N/A   Overcast
9:55 AM 69.8 °F - 68.0 °F 94% 29.60 in 7.0 mi SW 10.4 mph - N/A   Overcast
10:15 AM 69.8 °F - 69.8 °F 100% 29.60 in 7.0 mi WSW 8.1 mph - N/A   Overcast
10:35 AM 71.6 °F - 69.8 °F 94% 29.60 in 7.0 mi WSW 11.5 mph 17.3 mph N/A   Mostly Cloudy
10:55 AM 71.6 °F - 69.8 °F 94% 29.61 in 7.0 mi West 12.7 mph 20.7 mph N/A   Overcast
11:15 AM 71.6 °F - 69.8 °F 94% 29.61 in 7.0 mi WSW 10.4 mph 18.4 mph N/A   Overcast
11:35 AM 73.4 °F - 69.8 °F 88% 29.61 in 7.0 mi WSW 10.4 mph 21.9 mph N/A   Mostly Cloudy
11:55 AM 75.2 °F - 68.0 °F 78% 29.60 in 7.0 mi WSW 11.5 mph 20.7 mph N/A   Scattered Clouds
12:15 PM 77.0 °F - 68.0 °F 74% 29.61 in 7.0 mi West 8.1 mph 17.3 mph N/A   Scattered Clouds
12:35 PM 77.0 °F - 64.4 °F 65% 29.61 in 10.0 mi West 10.4 mph 17.3 mph N/A   Mostly Cloudy
12:55 PM 78.8 °F - 62.6 °F 57% 29.61 in 10.0 mi WNW 10.4 mph 17.3 mph N/A   Scattered Clouds
1:15 PM 78.8 °F - 62.6 °F 57% 29.60 in 10.0 mi WNW 10.4 mph 17.3 mph N/A   Scattered Clouds
1:55 PM 80.6 °F 81.1 °F 59.0 °F 48% 29.60 in 10.0 mi West 11.5 mph 18.4 mph N/A   Scattered Clouds
2:15 PM 80.6 °F 80.8 °F 57.2 °F 45% 29.59 in 10.0 mi West 9.2 mph 20.7 mph N/A   Clear
2:35 PM 80.6 °F 80.8 °F 57.2 °F 45% 29.58 in 10.0 mi West 10.4 mph 17.3 mph N/A   Clear
2:55 PM 80.6 °F - 51.8 °F 37% 29.58 in 10.0 mi WNW 11.5 mph 20.7 mph N/A   Clear
3:15 PM 82.4 °F - 51.8 °F 35% 29.58 in 10.0 mi WNW 13.8 mph 19.6 mph N/A   Clear
3:35 PM 82.4 °F - 51.8 °F 35% 29.56 in 10.0 mi NW 12.7 mph 17.3 mph N/A   Clear
3:55 PM 82.4 °F - 51.8 °F 35% 29.55 in 10.0 mi WNW 13.8 mph 19.6 mph N/A   Clear
4:15 PM 82.4 °F - 51.8 °F 35% 29.55 in 10.0 mi NW 10.4 mph - N/A   Clear
4:35 PM 82.4 °F - 51.8 °F 35% 29.55 in 10.0 mi West 9.2 mph 16.1 mph N/A   Clear
4:55 PM 82.4 °F - 51.8 °F 35% 29.55 in 10.0 mi West 5.8 mph - N/A   Clear
5:15 PM 82.4 °F - 50.0 °F 32% 29.55 in 10.0 mi West 11.5 mph 17.3 mph N/A   Clear
5:35 PM 82.4 °F - 50.0 °F 32% 29.55 in 10.0 mi West 9.2 mph 16.1 mph N/A   Clear
5:55 PM 82.4 °F - 50.0 °F 32% 29.55 in 10.0 mi West 11.5 mph 23.0 mph N/A   Clear
6:15 PM 82.4 °F - 51.8 °F 35% 29.55 in 10.0 mi WSW 12.7 mph 19.6 mph N/A   Scattered Clouds
6:35 PM 80.6 °F 80.5 °F 55.4 °F 42% 29.55 in 10.0 mi WSW 8.1 mph - N/A   Mostly Cloudy
6:55 PM 80.6 °F - 51.8 °F 37% 29.55 in 10.0 mi WSW 16.1 mph 24.2 mph N/A   Scattered Clouds
7:15 PM 78.8 °F - 50.0 °F 36% 29.55 in 10.0 mi WSW 11.5 mph 23.0 mph N/A   Clear
7:35 PM 77.0 °F - 50.0 °F 39% 29.55 in 10.0 mi WSW 10.4 mph 17.3 mph N/A   Clear
7:55 PM 77.0 °F - 48.2 °F 36% 29.56 in 10.0 mi WSW 12.7 mph 20.7 mph N/A   Clear
8:15 PM 75.2 °F - 48.2 °F 38% 29.57 in 10.0 mi WSW 8.1 mph - N/A   Clear
8:35 PM 75.2 °F - 46.4 °F 36% 29.58 in 10.0 mi WSW 8.1 mph 17.3 mph N/A   Clear
8:55 PM 73.4 °F - 48.2 °F 41% 29.60 in 10.0 mi WSW 10.4 mph 16.1 mph N/A   Clear
9:15 PM 73.4 °F - 50.0 °F 44% 29.61 in 10.0 mi WSW 8.1 mph 20.7 mph N/A   Clear
9:35 PM 71.6 °F - 51.8 °F 50% 29.62 in 10.0 mi WSW 9.2 mph 19.6 mph N/A   Clear
9:55 PM 71.6 °F - 53.6 °F 53% 29.63 in 10.0 mi WSW 10.4 mph - N/A   Clear
10:15 PM 71.6 °F - 53.6 °F 53% 29.64 in 10.0 mi West 8.1 mph - N/A   Clear
10:35 PM 69.8 °F - 55.4 °F 60% 29.66 in 10.0 mi WNW 18.4 mph 25.3 mph N/A   Scattered Clouds
10:55 PM 66.2 °F - 53.6 °F 64% 29.69 in 10.0 mi NW 15.0 mph 26.5 mph N/A   Mostly Cloudy
11:15 PM 64.4 °F - 51.8 °F 64% 29.71 in 10.0 mi NW 19.6 mph 29.9 mph N/A   Scattered Clouds
11:35 PM 62.6 °F - 44.6 °F 52% 29.73 in 10.0 mi NW 17.3 mph 26.5 mph N/A   Scattered Clouds
11:55 PM 60.8 °F - 39.2 °F 45% 29.74 in 10.0 mi NW 17.3 mph 26.5 mph N/A   Clear